Regional Weather Roundup
Issued by NWS

Home | Current Version | Previous Version | Graphics & Text | Print | Product List | Glossary On
Versions: 1 2 3 4 5 6 7 8 9 10 11 12 13 14 15 16 17 18 19 20 21 22 23 24 25 26 27 28 29 30 31 32 33 34 35 36 37 38 39 40 41 42 43 44 45 46 47 48 49 50
133
ASUS43 KLOT 230608
RWRIL

ILLINOIS REGIONAL WEATHER ROUNDUP
NATIONAL WEATHER SERVICE CHICAGO/ROMEOVILLE IL
100 AM CDT SUN APR 23 2017

NOTE: "FAIR" INDICATES FEW OR NO CLOUDS BELOW 12,000 FEET WITH NO
SIGNIFICANT WEATHER AND/OR OBSTRUCTIONS TO VISIBILITY.

* THESE STATIONS ARE NOT UNDER NWS QUALITY CONTROL. THEY ALSO MAY NOT
  REPORT WEATHER SUCH AS PRECIPITATION OR FOG.

ILZ001-002-007-009-015-016-024-230700-
NORTHWEST ILLINOIS

CITY           SKY/WX    TMP DP  RH WIND       PRES   REMARKS
MOLINE         CLEAR     41  36  82 CALM      30.15F
6HR MIN TEMP:  41; 6HR MAX TEMP:  62;

STERLING*      CLEAR     39  35  86 CALM      30.16S
SAVANNA*       CLEAR     39  34  81 CALM      30.15F
$$

ILZ003-004-008-010-011-017-018-230700-
NORTH CENTRAL ILLINOIS

CITY           SKY/WX    TMP DP  RH WIND       PRES   REMARKS
ROCKFORD       CLEAR     42  33  70 CALM      30.16F
6HR MIN TEMP:  41; 6HR MAX TEMP:  61;

FREEPORT*      CLEAR     38  31  75 CALM      30.16F
ROCHELLE*      CLEAR     38  32  78 CALM      30.15F
DE KALB*       CLEAR     45  24  43 CALM      30.15F
PERU*          CLEAR     42  28  57 CALM      30.15F
$$

ILZ005-006-012>014-019>023-230700-
NORTHEAST ILLINOIS

CITY           SKY/WX    TMP DP  RH WIND       PRES   REMARKS
CHICAGO-OHARE  CLEAR     42  27  55 CALM      30.14F
6HR MIN TEMP:  38; 6HR MAX TEMP:  57;

CHICAGO-MIDWAY CLEAR     47  29  49 SE3       30.15F
6HR MIN TEMP:  46; 6HR MAX TEMP:  55;

AURORA         CLEAR     38  30  73 CALM      30.15F
6HR MIN TEMP:  37; 6HR MAX TEMP:  59;

LANSING*       CLEAR     38  34  86 CALM      30.16F
JOLIET*        CLEAR     39  34  84 CALM      30.15F
WAUKEGAN       CLEAR     36  33  89 CALM      30.13F
6HR MIN TEMP:  35; 6HR MAX TEMP:  53;

DUPAGE AIRPORT CLEAR     39  32  76 CALM      30.14F
6HR MIN TEMP:  39; 6HR MAX TEMP:  57;

KANKAKEE*      CLEAR     39  30  69 CALM      30.15F
WHEELING       CLEAR     39  29  67 CALM      30.15F
6HR MIN TEMP:  39; 6HR MAX TEMP:  55;

MORRIS*        CLEAR     43  27  54 CALM      30.14S
ROMEOVILLE*    CLEAR     42  28  57 NE3       30.14F
NORTHERLY ISL    N/A     46  31  56 SE1         N/A
$$

LMZ740>746-230700-
SOUTHERN LAKE MICHIGAN

STATION/POSITION SKY/WX   TEMP    WIND        PRES    VSBY  WAVE
                          AIR SEA DIR/SP/G                  HT/PER
                          (F)     (DEG/KT/KT) (MB)    (MI)  (FT/S)
HARRISON CRIB              47     170/  5/  5   N/A
BURNHAM HARBOR             45     120/  3/  4   N/A
CALUMET HARBOR             46     120/  4/  5 1020.5F
BURNS HARBOR               47      60/  6/  7 1021.3F
MICHIGAN CITY              44      90/  2/  2   N/A
ST. JOSEPH                 48 48  100/  4/  6 1021.4          2/ 4
$$

ILZ025>027-034>036-040-047-049-050-058-095>099-230700-
WEST-CENTRAL ILLINOIS

CITY           SKY/WX    TMP DP  RH WIND       PRES   REMARKS
QUINCY         CLEAR     45  31  58 NE5       30.15S
GALESBURG*     CLEAR     39  32  75 CALM      30.15F
MACOMB*        CLEAR     40  31  69 N3        30.18S
JACKSONVILLE*  CLEAR     45  28  53 NE6       30.14S
PITTSFIELD*    CLEAR     49  29  47 N3        30.15S
$$

ILZ028>032-037-038-041>044-048-051>054-059>061-230700-
CENTRAL ILLINOIS

CITY           SKY/WX    TMP DP  RH WIND       PRES   REMARKS
PONTIAC        CLEAR     43  29  57 NE9       30.15F
BLOOMINGTON    CLEAR     40  29  64 NE6       30.15F
DECATUR        CLEAR     39  32  76 NE8       30.13S WCI  33
PEORIA         CLEAR     46  27  47 E5        30.15F
6HR MIN TEMP:  45; 6HR MAX TEMP:  61;

LACON*         CLEAR     39  28  65 CALM      30.14F
LINCOLN*       CLEAR     43  32  64 N6        30.14F
SPRINGFIELD    CLEAR     44  32  62 NE8       30.14S
6HR MIN TEMP:  44; 6HR MAX TEMP:  62;

TAYLORVILLE    CLEAR     44  31  61 NE8       30.12F
6HR MIN TEMP:  44; 6HR MAX TEMP:  60;

$$

ILZ033-039-045-046-055>057-062-063-230700-
EAST-CENTRAL ILLINOIS

CITY           SKY/WX    TMP DP  RH WIND       PRES   REMARKS
CHAMPAIGN      CLEAR     44  26  49 NE12      30.13F
RANTOUL*       CLEAR     45  28  52 NE6       30.14S
MATTOON        CLEAR     42  34  73 N9        30.10S
PARIS*         CLEAR     43  33  66 N7        30.11F
$$

ILZ079-100>102-230700-
SOUTHWEST ILLINOIS

CITY           SKY/WX    TMP DP  RH WIND       PRES   REMARKS
ALTON          CLEAR     46  34  63 N5        30.10F
BELLEVILLE     CLEAR     47  37  68 N6        30.06F
CAHOKIA*       CLEAR     47  36  65 NE7       30.08F
SPARTA*        PTCLDY    47  37  70 N7        30.06F
$$

ILZ064>066-069>071-074>076-080>082-084>086-088>090-092>094-230700-
SOUTH-CENTRAL ILLINOIS

CITY           SKY/WX    TMP DP  RH WIND       PRES   REMARKS
CARBONDALE     CLOUDY    51  42  71 NE13      30.02F
6HR MIN TEMP:  50; 6HR MAX TEMP:  52; 6HR PCP: TRACE;

CAIRO*         CLOUDY    52  44  76 N8        29.99S
EFFINGHAM*     PTCLDY    48  36  64 N5        30.09F
MARION         CLOUDY    52  43  71 N9        30.02F
MT. VERNON     CLEAR     49  36  61 NE8       30.04F
CENTRALIA*     CLEAR     50  37  60 NE8       30.05F
SALEM*         CLEAR     51  33  51 NE6       30.06F
METROPOLIS*    CLOUDY    51  44  77 NE5       29.99S
$$

ILZ067-068-072-073-078-083-087-091-230700-
SOUTHEAST ILLINOIS

CITY           SKY/WX    TMP DP  RH WIND       PRES   REMARKS
LAWRENCEVILLE  CLEAR     47  34  60 NE10      30.05F
FLORA*         CLEAR     50  36  59 NE7       30.06F
FAIRFIELD*     CLEAR     49  37  63 NE6       30.03F
HARRISBURG*    CLOUDY    52  42  69 N9        30.02F
ROBINSON*      CLEAR     44  36  71 N7        30.08F
CARMI*         CLOUDY    50  41  70 N8        30.02F
$$

ABBREVIATIONS USED IN REMARKS
   TC - TEMPERATURE IN CELSIUS
  WCI - WIND CHILL INDEX
   HX - HEAT INDEX
  VSB - VISIBILITY
$$





USA.gov is the U.S. government's official web portal to all federal, state and local government web resources and services.